Wind_Speed
27 28 29 28 27 25 26 28 30 31 32 33 34 34 34 33 34 35 37 38 39 39 38 36 32 29 30 31 31 31 30 29 28 28 27 27 28 30 32 33 32 28 25 23 22 23 25 26 28 31 34 38 40 41 40 41 40 39 40 43 46 46 44 43 43 44 44 43 44 44 44 45 43 43 41 40 39 38 37 36 34 32 29 28 28 27 25 23
28 28 28 27 25 25 26 28 30 31 32 32 33 33 33 32 33 35 36 37 38 37 36 33 29 29 30 30 30 30 30 28 27 25 25 26 27 29 30 31 28 24 21 18 18 20 22 24 26 28 31 35 38 39 40 40 40 39 39 41 43 43 42 43 45 46 46 45 44 43 45 45 44 43 42 41 40 38 37 34 31 30 29 27 27 26 24 22
28 28 27 25 24 25 27 29 30 30 31 32 32 32 31 31 33 34 35 36 36 35 34 30 28 29 30 30 30 30 29 27 26 26 27 27 27 27 29 28 24 21 17 14 15 16 19 21 23 25 28 32 36 37 38 39 40 39 38 40 41 41 42 45 47 49 48 45 44 44 46 45 44 43 43 42 41 39 39 36 33 33 32 30 28 26 23 21
28 27 26 24 24 25 27 29 29 30 30 31 31 31 30 31 32 33 34 35 34 34 32 28 28 29 29 29 29 30 29 27 27 29 29 28 26 25 26 24 20 17 14 11 13 14 16 18 20 23 25 29 33 35 36 38 38 39 39 39 38 40 43 46 47 47 46 43 43 45 45 45 44 44 43 43 42 41 40 39 38 36 33 30 27 25 23 21
27 26 24 23 23 26 27 28 29 29 30 30 30 30 29 30 31 32 33 33 33 33 30 27 27 28 28 29 28 28 27 27 27 29 31 29 26 25 24 21 18 14 11 9 10 12 14 16 19 21 23 25 29 33 34 35 36 38 38 36 38 42 44 46 46 45 44 44 44 45 45 44 43 44 43 43 42 40 40 38 34 32 30 29 27 24 23 20
27 25 23 22 24 26 27 28 28 28 29 29 29 29 29 29 30 31 32 31 31 32 29 27 27 27 27 28 27 26 25 26 28 30 31 30 27 26 25 20 16 14 11 9 7 9 12 15 17 19 21 23 26 30 32 34 36 36 36 38 42 44 44 45 45 45 45 46 45 44 45 44 43 44 44 43 42 41 41 39 33 30 30 30 28 23 20 17
26 24 22 22 24 26 27 27 28 28 28 28 28 28 28 29 29 30 31 30 30 31 28 26 27 26 26 26 26 25 24 25 29 31 33 32 29 28 26 21 16 13 12 9 6 6 10 14 16 18 20 22 25 28 30 32 33 34 35 38 40 41 43 44 45 45 44 45 44 44 46 46 45 45 45 44 44 42 40 39 35 31 31 29 25 21 18 17
26 23 22 22 24 25 26 27 27 27 26 26 27 27 27 29 29 29 30 29 29 30 28 26 26 26 26 26 25 25 26 28 31 33 35 35 32 29 27 24 16 11 10 8 4 4 8 13 16 18 20 22 24 26 29 30 31 34 36 37 38 39 43 44 45 45 43 43 44 45 47 47 47 47 46 45 46 43 38 36 34 31 31 29 23 20 18 17
25 23 22 22 23 25 26 26 26 26 25 25 26 26 27 28 28 28 29 28 28 28 27 26 26 26 26 26 25 26 29 30 32 34 35 37 35 31 27 24 18 12 9 5 2 4 8 12 14 17 19 23 25 26 28 29 31 34 36 37 39 41 43 44 44 44 44 45 46 47 47 47 49 49 48 48 48 44 38 33 31 32 33 29 25 21 18 17
24 22 22 22 23 25 25 25 25 25 24 24 25 26 26 27 27 27 28 28 27 27 27 26 26 26 25 26 25 25 29 30 32 34 35 36 36 32 28 24 19 14 10 7 5 6 8 12 14 16 19 22 25 28 29 31 32 33 34 36 39 42 44 44 45 45 45 46 47 47 48 50 50 48 49 50 47 43 38 32 29 32 31 29 28 23 19 17
23 22 22 22 23 24 25 24 24 24 23 23 24 25 25 26 26 26 27 27 26 26 27 26 27 27 25 26 25 23 26 29 31 33 34 34 34 33 29 24 20 16 12 9 8 8 10 13 15 17 19 22 24 27 30 32 34 35 35 37 40 42 44 45 46 46 46 47 47 48 49 50 48 45 46 46 42 38 34 31 29 29 28 29 31 25 19 18
23 22 22 22 23 24 24 23 23 23 23 22 24 24 24 25 25 25 26 26 25 25 26 26 27 28 28 26 26 24 24 26 29 31 32 33 34 33 29 25 22 18 15 12 10 9 10 13 16 19 21 23 25 27 29 32 35 38 39 38 40 43 44 45 46 47 47 47 48 50 51 50 47 45 43 39 37 34 31 31 29 27 26 26 27 24 19 16
23 22 22 22 22 23 23 23 22 22 22 22 23 24 24 24 24 24 25 26 25 24 24 25 25 27 28 26 27 26 23 24 28 29 30 31 32 33 30 26 23 20 16 13 11 10 10 12 14 19 22 24 26 27 29 32 35 38 38 37 40 43 43 44 46 46 48 49 50 51 51 49 46 43 39 35 33 32 31 32 30 27 25 22 21 20 16 15
22 22 22 22 22 22 22 22 21 21 21 21 23 24 24 24 23 22 24 24 25 24 23 23 23 24 25 26 27 27 24 23 26 28 28 29 30 31 30 27 24 22 19 16 14 12 11 13 15 17 21 24 26 27 30 34 35 36 37 38 41 42 43 46 47 48 50 50 51 51 48 45 41 37 37 35 33 32 31 30 27 25 24 20 17 16 13 14
22 21 21 21 21 22 22 21 21 20 20 21 22 24 24 24 23 21 22 23 24 24 23 22 22 22 22 24 26 26 25 24 24 25 25 25 28 29 28 26 25 26 24 19 17 15 13 14 17 18 20 24 26 29 31 34 34 35 36 38 39 42 45 48 48 49 48 45 46 48 46 43 38 32 34 35 32 32 28 23 22 22 21 18 14 12 13 14
22 21 21 21 21 21 21 21 20 20 19 20 21 23 24 24 23 20 20 22 23 24 23 22 21 21 21 22 23 24 25 24 24 24 23 22 24 27 26 23 24 27 27 24 20 19 17 17 19 20 22 25 27 29 30 32 34 34 36 37 39 44 47 48 47 47 45 41 41 42 42 41 37 31 30 31 29 29 25 17 17 20 19 16 13 12 14 15
22 21 21 21 21 21 21 20 20 20 19 19 20 21 23 23 23 21 19 20 22 23 24 23 23 21 21 21 20 22 24 25 25 24 23 23 24 27 25 21 20 23 25 25 24 22 21 20 21 22 23 25 27 28 28 30 32 33 38 41 42 45 45 44 43 42 44 39 35 36 36 36 34 30 28 27 27 27 23 16 16 18 16 14 13 14 16 15
22 22 21 21 21 20 20 20 19 19 19 19 19 20 22 22 23 21 19 19 21 22 23 25 26 22 21 21 20 21 23 25 25 24 23 24 25 26 25 22 19 17 19 21 22 22 21 20 21 21 22 22 25 27 25 26 28 30 38 39 39 38 33 38 39 36 39 34 29 32 33 32 30 28 28 27 26 25 20 15 15 15 12 11 12 13 15 15
23 22 21 21 20 20 19 19 18 18 18 18 19 20 21 22 22 21 20 19 20 21 21 24 26 24 23 23 22 22 22 23 24 23 24 24 25 25 25 26 24 18 18 20 21 21 21 19 19 20 20 21 23 23 20 22 25 28 34 34 37 31 20 32 38 30 34 31 25 30 31 31 30 29 28 27 26 24 19 15 14 13 10 10 11 13 14 15
23 22 21 21 20 19 19 18 17 17 17 16 17 19 22 23 23 22 20 19 19 20 21 24 26 26 26 26 24 22 21 22 23 23 23 23 24 24 23 25 26 22 20 21 21 20 21 20 19 18 17 17 20 20 17 21 24 27 31 30 36 29 14 25 35 27 29 29 25 28 31 33 31 29 29 26 25 23 20 16 13 12 11 11 12 13 14 15
23 22 21 20 20 19 18 17 16 15 15 15 16 17 20 23 23 22 20 18 18 19 21 23 24 26 27 27 26 24 21 20 22 23 22 22 24 24 21 21 23 21 18 18 19 19 23 23 18 15 16 18 20 20 20 21 23 25 27 25 30 28 16 21 28 24 24 29 28 26 27 32 32 29 28 26 25 23 20 18 15 14 13 13 13 13 14 15
22 22 21 20 20 18 17 16 15 14 14 13 14 15 18 21 21 20 19 17 17 19 20 22 23 24 25 25 25 24 22 20 20 21 21 20 22 23 22 20 20 19 18 19 19 18 21 20 17 14 17 22 22 20 22 22 21 23 25 23 23 25 21 19 22 22 22 28 30 21 16 24 29 28 28 29 28 25 21 18 17 16 14 13 12 12 13 14
21 22 21 21 20 19 17 16 14 12 12 11 12 13 16 20 20 20 19 15 15 18 20 21 22 22 22 23 23 22 23 22 19 19 18 19 19 20 22 22 21 20 20 20 20 18 16 14 17 17 18 21 21 22 23 20 20 22 22 22 21 20 22 20 17 18 20 25 27 16 9 14 22 27 29 30 27 23 21 20 19 17 14 12 11 12 13 14
21 21 21 21 20 19 18 16 13 12 10 10 10 11 14 18 19 19 18 15 14 17 19 20 22 21 21 22 21 19 20 20 18 17 16 17 17 17 19 21 21 20 19 19 18 18 17 18 22 21 21 22 21 22 22 19 21 22 21 22 20 18 19 18 17 19 18 20 24 19 10 10 17 26 28 27 24 22 22 22 20 18 14 13 13 14 14 15
20 21 21 21 20 19 18 16 13 11 10 8 9 10 12 17 18 18 17 14 12 16 18 19 21 21 20 21 20 19 16 16 17 18 16 16 16 17 16 17 18 18 18 17 16 16 17 20 25 25 23 22 21 22 22 20 21 21 22 23 19 17 17 15 18 21 17 16 19 20 15 11 14 19 22 21 21 22 23 22 21 19 17 16 16 16 15 16
19 20 21 21 20 19 18 17 14 11 9 8 8 8 10 15 17 17 16 12 11 15 17 18 18 19 18 18 20 22 19 15 16 18 17 17 16 16 15 14 15 16 16 16 16 16 17 17 21 24 24 22 22 22 21 20 19 19 22 21 20 18 12 10 17 22 18 15 18 17 14 12 11 12 15 17 19 21 22 23 22 20 17 17 16 16 17 18
19 19 20 20 20 19 18 17 15 12 9 8 7 7 9 13 16 16 14 11 10 13 16 16 17 17 16 16 18 22 22 18 16 16 17 17 17 16 15 13 13 14 15 16 15 15 15 15 16 19 20 19 19 20 19 18 17 18 18 19 22 17 8 9 17 21 20 16 17 15 11 10 9 9 13 15 17 19 21 21 20 18 16 16 16 17 17 16
19 19 19 20 19 19 18 17 16 12 9 8 6 6 8 11 14 14 13 11 11 12 13 15 17 17 16 15 17 20 22 21 18 16 16 16 15 15 14 13 13 15 15 16 16 14 12 13 14 15 15 15 17 19 18 18 18 16 14 14 17 14 8 11 17 21 20 14 12 12 9 8 8 8 11 13 15 16 17 18 16 15 15 15 16 15 14 13
18 18 19 19 19 18 17 17 16 12 9 8 6 5 6 9 12 12 11 11 11 11 12 13 15 16 15 15 17 19 20 21 21 19 19 18 15 14 13 12 13 14 14 15 16 16 15 14 13 13 14 15 17 18 18 18 16 13 12 11 12 12 9 12 15 19 17 11 9 10 8 6 6 6 8 11 13 14 14 14 14 14 14 14 13 11 10 10
18 18 18 19 18 18 17 16 16 13 9 8 6 5 5 7 10 11 10 9 8 9 10 12 13 14 15 15 16 18 18 19 19 20 22 22 20 18 15 12 11 11 11 12 13 15 16 15 14 13 14 13 12 13 14 13 10 8 9 9 11 12 12 13 15 16 14 10 9 9 7 6 5 6 8 10 12 13 13 13 12 12 11 11 10 9 10 11
18 17 17 18 18 17 17 16 16 14 9 8 7 5 4 6 8 9 10 9 7 7 8 9 11 13 14 14 14 15 16 16 17 18 20 21 21 21 19 17 14 12 11 11 11 12 12 12 12 11 11 10 9 9 9 7 4 4 6 9 13 14 14 14 14 13 11 9 10 9 8 8 8 7 7 9 10 10 11 11 10 9 9 10 10 10 11 11
17 17 16 17 17 17 16 15 15 14 10 7 7 5 4 4 6 8 9 7 6 6 6 6 8 11 13 13 13 13 13 13 15 16 18 18 18 19 19 19 18 16 15 14 12 13 12 11 10 9 8 8 8 8 8 8 6 6 9 12 16 17 16 14 14 13 11 10 10 9 8 7 7 6 6 6 7 7 8 8 8 8 8 8 9 10 11 10
17 16 16 16 16 16 15 15 15 14 10 7 7 6 4 4 5 6 7 6 4 4 4 4 5 7 10 11 12 12 12 11 12 14 15 16 16 16 17 18 18 17 17 16 16 16 15 13 11 10 8 7 9 9 8 9 10 10 12 15 18 18 15 13 14 14 13 12 11 10 8 9 9 7 6 7 7 7 7 7 7 7 7 7 8 9 10 9
16 16 15 15 15 15 14 14 14 14 11 7 7 6 4 5 5 5 6 5 3 2 2 3 3 4 7 10 10 10 10 9 11 12 12 13 13 13 14 15 16 16 16 16 16 16 15 13 12 12 11 11 14 16 14 11 11 9 9 13 17 16 14 13 14 15 15 15 15 12 11 11 9 8 8 8 8 7 7 6 5 5 5 6 6 7 7 7
16 16 15 14 14 14 13 13 13 13 10 7 7 6 5 5 5 5 5 4 2 1 1 1 1 2 4 7 9 9 8 8 9 10 10 9 10 11 11 12 13 14 14 15 15 16 15 14 14 14 13 14 16 19 18 16 17 15 13 14 17 16 17 18 18 18 19 18 16 13 12 11 10 9 10 9 9 8 7 6 5 4 3 3 3 3 3 4
16 15 14 13 13 13 12 12 12 12 10 7 6 6 5 5 5 5 4 4 2 2 1 1 1 1 1 4 7 7 7 7 7 9 9 8 9 10 9 10 11 11 12 13 14 14 14 15 17 16 15 15 16 18 18 18 20 20 19 22 24 23 24 23 19 18 18 16 14 13 12 11 10 10 10 10 10 10 9 7 5 4 4 3 2 2 1 1
15 15 14 13 12 12 11 11 11 11 10 7 5 6 6 6 6 6 5 3 2 2 2 2 1 0 1 0 3 5 5 5 5 6 8 7 7 8 8 8 9 9 10 12 12 12 13 14 15 16 16 15 16 16 17 17 17 19 20 21 23 23 22 21 18 16 15 13 13 13 12 12 11 10 10 10 9 9 9 8 7 5 4 3 3 2 2 1
15 15 14 13 12 11 11 10 10 10 10 8 6 6 7 6 6 7 6 3 2 2 4 4 3 1 1 2 0 2 3 5 4 5 7 6 6 7 7 7 8 8 10 11 10 12 14 13 13 14 15 15 14 15 16 15 14 16 19 19 20 21 20 18 17 14 13 12 12 12 12 11 11 10 10 10 9 8 8 8 7 6 5 4 3 2 2 1
15 15 14 13 12 11 11 10 9 9 9 8 7 7 7 7 7 7 7 5 3 3 5 6 5 3 2 4 3 1 2 4 4 4 6 5 5 6 7 8 8 8 9 10 10 11 13 13 12 12 13 13 13 13 15 14 13 13 15 15 17 18 17 17 16 14 12 10 10 11 11 11 10 10 10 10 10 8 8 8 7 7 6 5 4 3 3 2
15 15 14 13 12 12 11 10 9 9 8 8 8 7 8 8 8 8 8 7 5 4 5 6 7 5 4 4 5 4 3 5 4 4 5 4 4 5 6 8 8 8 9 11 11 10 11 11 12 12 12 11 11 12 13 13 12 12 12 13 14 15 14 15 14 14 13 10 9 9 10 10 10 8 8 8 8 7 7 6 6 6 6 6 5 3 2 2
16 15 15 13 12 12 12 11 9 9 9 9 8 8 8 8 9 9 10 9 7 5 5 6 7 6 5 5 6 5 5 7 6 5 5 5 4 5 5 6 7 9 10 11 11 10 9 10 10 11 10 10 9 10 11 11 11 11 11 12 13 13 13 13 12 11 12 11 9 9 9 9 8 6 5 4 4 4 3 3 3 3 4 5 4 3 2 1
16 16 15 14 13 13 12 12 10 10 10 10 9 9 9 9 9 10 11 11 9 8 6 6 7 7 6 6 7 7 7 8 9 7 6 5 4 5 5 5 6 8 9 10 10 10 9 8 8 8 8 8 7 8 9 9 10 11 11 11 11 10 10 11 10 10 10 9 9 9 8 8 7 5 3 2 3 2 1 1 1 2 3 4 4 3 2 1
17 16 15 14 13 14 13 12 11 11 11 10 9 9 10 10 10 10 11 12 11 10 9 7 8 9 9 7 7 8 8 9 11 10 8 7 5 5 6 5 6 7 8 9 9 10 9 7 7 8 7 7 8 7 8 8 9 10 10 10 9 7 8 9 9 8 8 8 8 8 7 6 6 5 4 3 2 1 1 0 1 1 2 3 3 3 3 3
17 16 16 15 14 14 14 13 12 12 12 11 10 10 10 11 11 10 12 13 13 13 11 9 8 9 10 9 9 9 10 11 12 12 10 9 7 6 6 6 6 6 7 8 9 9 9 9 8 8 6 7 8 8 8 8 8 9 10 9 8 7 6 7 7 7 6 6 5 5 5 5 4 4 4 4 4 3 3 3 3 2 3 4 5 5 5 6
17 17 17 16 15 15 15 14 13 13 12 11 11 11 11 11 12 12 13 14 15 15 14 12 10 10 11 11 10 10 11 12 14 14 13 11 9 7 6 6 7 6 6 8 9 9 9 10 9 9 8 8 8 7 7 8 9 10 10 10 9 8 7 6 6 6 4 4 4 4 4 4 4 3 4 5 5 4 4 4 3 3 4 5 6 6 7 8
18 18 17 16 15 15 15 15 14 14 13 12 12 11 11 11 12 13 14 15 17 17 16 15 13 12 11 11 11 11 12 12 14 15 15 12 10 8 7 6 7 6 6 7 9 8 8 9 9 9 8 7 7 7 6 7 8 9 9 9 9 9 8 6 6 6 4 4 5 5 4 4 3 3 3 4 4 4 5 4 3 4 5 6 7 8 9 9
17 17 17 16 15 15 15 15 15 15 14 13 13 12 12 12 12 13 14 16 17 18 18 17 16 14 12 11 11 12 13 14 14 15 16 14 12 10 9 8 7 7 6 7 8 8 8 7 7 7 6 5 6 6 6 6 7 7 8 8 8 9 8 7 7 7 5 5 4 4 4 4 4 3 3 4 4 4 5 4 5 6 6 7 8 9 10 10
15 16 16 16 15 14 15 15 15 15 15 14 14 13 13 13 12 13 15 16 17 19 20 19 18 16 14 13 12 13 14 15 15 15 17 17 15 12 11 11 9 8 7 7 7 7 7 7 6 7 7 6 5 5 5 6 6 5 6 6 7 8 9 8 6 5 4 4 3 3 4 4 5 6 5 5 5 5 5 6 6 7 8 8 9 9 10 11
14 15 15 15 15 14 15 15 15 15 15 15 15 14 14 13 13 14 17 17 16 19 21 20 20 18 16 15 14 13 14 15 15 16 17 18 17 15 14 13 12 10 9 8 8 8 8 7 7 7 7 7 6 5 5 5 5 4 4 4 5 7 7 7 6 5 5 5 5 5 6 5 6 7 8 7 7 6 6 7 7 8 9 9 10 10 11 11
12 14 15 15 15 14 14 15 15 15 16 15 15 15 14 14 14 16 18 18 18 19 21 21 20 19 18 16 15 14 15 15 16 16 16 18 18 17 16 15 14 12 11 11 11 11 10 9 9 9 10 9 8 7 7 6 6 6 5 5 5 6 7 8 8 7 7 7 7 8 8 7 7 8 8 9 8 8 8 8 8 9 10 11 11 11 12 13
13 13 14 14 14 13 14 15 15 16 16 16 16 16 15 14 15 16 18 19 21 21 22 22 21 20 20 19 17 16 16 16 16 16 17 18 19 19 18 17 16 15 14 13 13 13 13 13 12 12 12 11 10 10 9 9 9 8 8 8 8 8 9 10 10 10 10 9 9 9 9 10 10 9 9 10 10 10 10 10 10 11 12 13 13 13 13 14
13 14 14 14 14 13 14 14 15 16 16 16 16 16 15 15 15 16 17 19 21 22 23 23 22 21 21 21 20 19 17 17 17 17 17 18 19 20 21 20 20 18 16 15 14 14 14 15 15 15 14 13 12 11 10 10 10 9 9 10 9 10 10 11 12 12 12 11 11 11 11 12 13 13 13 13 13 13 13 13 13 13 14 15 15 15 14 14
Wind_Direction
334 333 333 334 334 334 336 338 340 340 339 338 337 339 340 340 341 342 341 341 339 337 334 333 334 335 335 331 326 323 322 322 322 320 319 320 318 314 310 305 300 293 285 276 264 253 244 236 232 230 225 221 219 219 217 216 215 215 215 214 214 211 209 206 205 206 204 208 209 202 203 202 201 202 203 205 210 212 216 220 219 220 223 225 230 233 236 238
336 335 335 336 337 337 338 341 341 341 340 339 339 341 342 342 343 344 344 343 341 338 336 337 339 338 337 333 327 325 325 326 325 325 327 327 322 318 314 311 307 299 287 274 261 250 241 233 228 226 223 219 216 215 214 213 213 212 212 213 211 208 206 203 201 202 202 206 204 199 199 199 198 199 201 205 210 214 216 220 220 220 224 229 234 236 237 238
337 336 337 338 339 339 340 343 343 342 341 340 341 343 344 345 346 347 346 345 342 340 340 342 342 341 339 334 331 330 331 335 335 335 336 334 328 324 320 317 312 304 292 271 255 245 237 230 223 220 220 217 214 213 211 210 210 209 209 209 207 204 204 202 200 200 200 201 199 197 197 196 197 196 200 206 209 213 216 218 217 219 223 225 231 235 236 236
338 338 340 341 341 340 342 344 344 343 342 342 344 345 346 347 348 349 348 346 344 344 345 345 344 342 340 338 337 336 338 344 346 343 343 341 336 332 326 323 318 309 298 273 249 236 230 225 218 215 214 214 212 210 209 208 207 206 205 205 203 202 203 201 199 199 198 198 197 196 194 193 196 196 200 206 209 213 217 218 219 222 222 218 222 232 234 233
339 341 342 343 342 342 344 346 345 345 343 344 346 347 349 349 350 351 349 347 347 348 350 349 346 343 342 343 345 345 347 353 355 354 352 348 344 342 336 331 324 315 308 287 255 233 221 215 211 208 208 209 208 207 205 204 203 204 202 199 199 201 201 200 197 197 196 197 196 193 190 191 194 196 200 206 209 213 218 221 224 228 228 221 215 222 229 229
341 343 344 344 344 344 346 347 347 346 345 345 347 349 351 351 352 352 350 349 349 351 352 352 349 345 346 348 352 356 358 1 4 4 1 356 351 349 345 339 331 326 317 299 270 236 215 202 201 202 202 204 204 203 201 198 198 199 198 197 198 198 198 197 194 195 195 195 194 190 187 191 194 196 201 206 208 211 216 220 222 227 229 222 211 211 221 226
343 344 345 346 345 345 347 348 348 348 346 346 349 351 352 353 354 353 352 350 352 354 355 355 352 349 351 354 358 4 7 9 12 11 9 6 0 356 353 346 340 336 327 307 281 235 209 192 190 194 196 199 199 197 195 194 194 193 194 197 197 194 194 193 192 195 195 192 190 187 186 190 193 196 201 206 209 210 216 218 217 223 224 217 209 206 214 221
344 345 345 347 346 347 348 349 350 349 347 348 350 352 354 355 355 354 352 351 353 355 357 359 356 355 356 360 4 8 12 16 17 16 15 13 9 6 2 357 353 349 341 321 292 213 194 184 183 187 189 191 192 191 189 189 190 190 190 192 191 190 192 191 191 193 192 189 187 187 188 190 192 195 200 206 210 209 213 214 212 219 222 220 213 205 209 215
345 346 346 347 347 348 349 350 351 351 348 348 351 353 355 356 355 355 353 352 354 356 359 2 2 1 1 5 9 10 15 18 20 20 19 17 14 13 12 8 5 5 1 357 45 145 169 170 173 179 181 183 183 183 184 184 186 188 188 186 185 187 189 189 189 190 189 187 186 187 189 191 195 196 198 204 209 207 207 209 209 213 218 226 223 208 208 214
346 346 347 348 348 349 350 351 352 352 349 349 352 354 357 357 356 356 354 352 353 355 359 4 6 6 5 10 13 12 16 20 22 22 21 20 17 17 19 17 15 20 24 33 73 118 143 150 159 167 172 175 177 177 178 181 181 182 183 183 183 185 186 187 187 187 187 185 185 188 190 193 197 197 198 203 207 206 208 211 208 207 215 233 233 213 204 212
347 347 347 348 349 350 351 351 353 353 350 350 354 355 358 359 358 357 355 353 352 354 357 4 9 8 8 12 15 14 18 22 23 23 22 20 19 20 24 24 24 32 43 57 81 105 127 138 149 156 163 168 171 174 176 178 175 172 176 180 183 184 184 185 185 185 185 183 186 189 192 197 198 198 201 203 204 204 210 213 206 206 220 234 229 211 201 211
348 347 346 348 350 351 352 352 354 354 350 351 356 357 360 1 360 359 357 354 353 354 356 2 9 10 10 11 14 15 19 23 24 25 23 20 21 24 28 32 34 40 51 66 83 100 123 138 147 150 156 161 165 171 173 173 171 169 173 180 182 181 182 184 184 183 182 183 186 190 195 199 198 199 202 200 200 202 208 214 210 212 221 222 210 198 198 210
348 347 346 348 350 352 353 353 355 355 351 352 357 359 1 3 2 360 359 357 355 357 357 0 7 11 10 10 10 12 16 21 25 26 26 26 28 29 30 38 45 49 54 63 76 93 114 129 140 148 154 157 161 167 167 167 169 168 172 176 177 178 180 182 184 183 182 184 188 192 196 200 198 199 201 198 196 199 205 212 213 211 212 208 193 185 194 211
348 347 346 347 351 353 353 353 355 356 352 353 358 360 1 5 4 1 1 360 358 360 359 359 5 10 10 10 11 11 11 18 25 27 31 36 37 35 32 39 49 55 59 65 75 87 105 120 131 143 151 154 157 160 160 163 166 167 170 171 172 175 178 181 184 185 184 186 190 193 196 199 199 200 200 197 195 196 199 202 202 200 203 202 185 176 191 212
347 347 346 347 351 354 354 353 355 357 354 354 359 1 1 5 6 2 1 3 2 3 3 0 4 8 10 11 12 11 12 17 23 27 32 38 38 33 31 38 48 55 59 64 76 86 97 118 131 140 148 151 153 156 158 163 166 167 168 167 170 175 179 183 186 186 187 189 191 193 195 196 199 199 195 194 193 191 193 197 198 199 201 194 174 173 194 210
346 348 347 347 351 354 354 354 355 357 356 356 0 1 1 4 6 3 1 4 5 6 8 6 4 7 9 11 12 11 13 17 21 24 25 27 27 25 29 38 46 51 55 63 73 85 96 111 127 137 144 146 149 155 160 164 164 166 168 168 174 179 182 185 187 188 188 190 193 194 196 197 200 200 194 194 193 193 200 209 204 200 197 185 168 181 201 210
345 347 348 347 351 355 355 354 354 356 357 358 1 3 1 2 4 3 1 3 4 8 14 15 12 11 10 11 12 13 14 17 19 21 19 17 16 18 25 38 45 44 49 60 72 85 95 105 118 128 137 144 149 154 159 163 164 168 171 173 177 180 183 186 187 189 189 191 195 194 194 197 202 204 202 203 204 204 211 214 205 203 197 180 175 192 206 213
344 347 348 347 350 355 355 354 354 355 356 357 1 3 1 2 3 2 3 2 2 8 19 24 22 18 14 13 15 16 17 18 20 19 18 17 17 19 29 43 47 42 46 60 72 82 91 99 111 119 130 140 148 153 155 164 171 172 171 171 174 174 180 189 190 189 191 193 194 192 191 195 200 202 201 204 207 208 210 206 205 211 201 182 188 205 214 219
343 346 348 348 350 355 355 354 354 355 356 356 0 1 359 1 3 4 5 3 2 7 18 27 28 24 20 19 18 18 19 20 22 22 20 20 25 32 45 55 57 58 62 71 78 84 90 96 107 117 129 138 148 154 153 163 168 166 168 170 171 166 164 184 190 191 192 194 190 189 193 195 198 200 197 200 205 208 210 204 205 218 211 194 203 215 219 224
342 345 348 348 350 354 355 354 354 354 354 356 1 1 356 358 3 5 6 4 5 10 18 28 30 26 23 22 21 20 21 22 25 26 24 26 35 44 54 64 69 71 72 76 80 87 93 98 106 114 127 139 148 147 139 152 160 162 169 172 172 169 149 172 186 192 194 197 192 188 195 199 199 198 192 190 197 205 209 208 211 219 215 204 209 216 221 228
341 343 347 348 349 353 355 354 353 353 353 354 0 1 355 356 360 2 2 3 7 13 20 27 29 27 23 21 22 23 24 25 27 29 28 32 43 51 58 67 75 74 72 76 77 89 98 96 96 109 124 130 135 135 130 143 153 158 169 173 175 179 168 166 184 193 195 199 194 187 196 202 201 197 190 188 195 199 200 206 213 214 209 207 209 215 224 232
340 341 345 347 348 352 354 354 353 352 352 351 357 0 353 353 357 358 360 1 5 12 18 23 25 26 24 21 21 24 28 31 32 34 37 40 47 54 61 64 69 71 75 81 82 94 99 84 76 100 124 124 121 128 130 138 151 157 167 176 179 182 177 169 179 191 195 196 192 183 182 193 196 195 193 193 193 191 193 203 209 209 209 208 211 219 229 236
340 340 343 347 347 351 353 353 352 350 351 349 354 360 351 350 354 356 359 360 5 11 14 19 21 21 22 21 20 23 30 35 36 39 43 48 50 54 61 61 62 71 79 83 84 92 93 71 74 104 130 127 121 131 135 137 151 160 166 171 170 173 177 176 179 186 191 193 196 192 160 169 185 189 191 192 188 186 192 200 206 211 213 215 222 230 237 242
339 339 342 345 346 349 351 352 351 348 350 348 350 357 351 348 352 355 356 357 5 10 11 16 21 20 20 18 17 22 31 37 41 45 47 53 55 55 63 65 64 69 78 83 83 86 87 77 82 107 132 130 125 138 143 137 144 152 151 150 156 167 176 184 185 180 182 194 203 203 182 157 175 184 189 191 189 189 193 199 207 215 222 231 240 242 245 251
339 339 341 344 346 348 350 350 350 346 346 347 347 356 352 346 351 355 355 356 3 8 10 14 18 22 20 15 17 26 35 42 46 51 54 60 65 65 68 73 71 69 74 82 82 84 89 88 90 106 128 131 130 141 144 141 144 146 138 139 152 166 173 187 194 189 189 195 197 197 195 177 171 180 186 189 190 194 198 204 212 221 231 241 247 248 253 257
338 339 340 343 345 347 349 348 348 344 342 344 345 353 351 345 350 354 356 360 0 7 16 17 17 21 22 20 22 29 37 47 52 55 59 63 68 72 72 75 76 73 73 76 81 87 93 97 97 107 121 127 129 134 138 142 142 137 136 144 156 162 170 189 195 195 193 185 184 189 192 175 161 170 181 189 195 200 205 210 217 226 235 242 247 252 256 257
338 339 339 342 345 346 348 347 345 343 340 342 342 349 350 345 350 354 356 1 2 8 19 21 22 28 30 30 29 31 36 45 53 56 61 65 67 72 75 77 81 80 76 76 83 92 100 104 106 114 122 124 130 136 138 139 134 134 144 159 167 172 183 170 172 180 178 173 176 181 174 157 153 163 176 190 200 204 210 215 221 228 233 238 244 249 252 253
337 339 338 341 344 345 347 345 342 342 337 336 337 344 349 346 349 354 357 3 8 15 20 23 31 37 37 36 34 34 36 40 48 53 56 63 65 68 72 74 77 79 80 81 85 94 106 111 115 125 125 121 131 134 129 128 128 133 149 169 185 200 206 171 168 172 174 176 172 171 173 165 165 172 174 186 197 203 210 216 222 226 229 234 238 242 247 250
334 338 338 339 342 344 346 343 339 339 335 330 332 336 344 346 348 353 359 6 10 20 28 32 38 43 41 38 35 36 37 37 42 49 53 56 60 64 67 68 69 73 79 83 88 96 106 113 116 122 119 115 126 126 120 124 126 130 144 166 190 202 196 181 178 175 180 192 175 168 188 185 182 196 191 191 196 199 205 211 216 221 227 232 237 243 249 252
332 336 337 338 341 343 345 342 337 338 333 325 325 324 332 344 348 353 1 6 9 19 33 39 44 48 47 42 36 34 37 39 39 45 51 52 54 58 59 62 64 68 75 81 87 93 99 105 107 110 114 116 127 132 131 132 129 131 144 158 170 178 179 178 180 183 193 202 180 176 201 206 210 217 208 208 204 198 202 208 213 220 228 236 243 249 252 254
328 332 335 336 339 341 344 342 338 338 333 321 318 317 324 336 345 353 359 1 3 14 28 38 44 48 48 46 39 32 35 40 41 44 49 50 51 54 56 59 63 66 73 78 81 83 84 88 93 100 114 123 135 147 158 164 165 169 167 169 172 172 171 172 181 190 194 191 182 189 211 220 225 223 221 227 218 202 205 212 218 226 233 240 248 252 254 258
323 327 332 334 336 339 342 343 339 337 335 321 311 314 316 315 331 350 358 360 3 10 24 33 37 41 44 46 41 33 31 36 39 42 49 51 52 55 58 62 64 67 73 79 84 85 84 85 90 99 116 135 152 166 189 202 203 195 182 176 177 175 173 177 184 186 181 181 185 191 194 194 199 201 202 205 194 187 197 205 212 221 229 238 246 252 256 259
318 322 327 331 334 337 341 341 339 340 340 324 310 310 299 291 316 344 353 358 5 10 23 30 25 32 40 43 40 35 32 35 39 41 46 52 53 55 59 64 68 71 75 81 87 88 85 84 85 92 105 130 146 149 169 193 195 190 185 182 182 182 184 185 185 185 183 178 178 180 167 156 157 157 152 149 148 155 168 180 192 205 218 232 243 251 254 253
313 316 321 327 332 334 338 340 338 341 343 329 310 304 287 283 301 329 344 353 3 17 37 36 19 29 42 44 45 42 37 39 45 45 46 52 54 53 56 63 72 78 81 82 85 86 84 81 83 88 94 107 117 114 118 142 159 165 180 186 187 193 194 179 169 167 165 162 162 161 150 144 144 143 142 140 143 152 161 168 179 189 209 230 243 254 254 247
307 309 314 321 328 331 336 339 337 340 343 334 312 299 283 277 284 301 333 346 347 352 48 79 30 18 43 48 49 50 47 46 51 52 50 54 59 56 56 62 71 82 88 85 83 85 85 85 87 92 93 95 100 101 103 110 117 119 121 131 144 157 158 150 141 138 140 143 145 143 139 135 134 139 143 143 148 155 157 158 162 170 189 213 228 248 254 241
303 304 306 312 321 327 333 336 335 337 342 336 315 297 278 264 266 275 307 331 326 303 271 159 94 335 10 52 52 53 56 54 57 66 67 66 66 60 59 67 72 82 91 89 85 86 89 89 89 92 95 94 93 95 99 102 107 112 113 112 116 125 131 131 128 127 129 133 134 136 141 135 130 140 141 139 148 149 147 150 148 146 150 143 143 152 177 197
298 299 300 304 313 321 328 333 331 333 340 337 316 292 275 259 256 265 282 314 319 277 263 248 202 242 282 44 60 59 72 72 65 78 82 78 75 70 68 75 78 85 93 90 85 88 92 90 88 90 94 94 94 96 99 103 107 111 112 112 113 116 120 123 125 125 125 131 133 137 145 139 133 141 134 130 137 133 135 145 142 135 135 132 135 134 125 107
293 293 293 297 304 312 319 326 325 326 335 336 316 289 274 259 249 255 263 281 302 263 245 247 233 202 277 265 162 77 94 95 86 92 93 90 94 93 89 92 89 88 94 94 90 93 95 89 84 87 92 94 97 98 99 103 108 111 113 116 115 115 118 120 121 123 126 131 133 136 142 140 139 144 135 129 134 131 133 139 136 133 134 135 137 131 122 100
287 288 288 291 296 303 309 315 316 317 325 329 318 293 276 260 245 245 251 255 265 250 235 241 243 234 262 269 257 233 144 123 110 109 105 98 105 110 106 106 102 98 106 110 106 101 98 94 91 91 93 97 100 102 103 104 106 109 112 117 117 118 122 124 124 126 129 132 134 135 137 136 139 144 138 134 138 141 142 140 137 137 134 132 130 131 138 143
283 283 284 286 289 293 298 302 304 304 309 315 312 297 280 263 246 240 244 246 247 246 239 240 244 243 247 260 263 256 197 159 139 127 128 116 107 118 118 112 109 109 118 124 121 113 103 101 103 102 102 104 105 106 109 109 108 109 114 120 122 123 125 123 124 127 130 135 138 137 137 136 139 146 146 144 145 149 150 147 144 137 127 119 112 108 111 129
279 279 279 281 283 284 286 289 291 292 294 299 303 299 286 268 252 242 240 242 242 245 247 243 242 243 245 246 247 251 229 191 167 148 151 147 117 116 128 126 117 116 123 129 127 122 113 107 107 107 108 110 109 110 113 113 112 114 122 125 126 128 124 118 121 127 132 139 142 141 141 141 142 145 146 149 154 156 157 152 133 104 91 85 80 75 74 81
274 274 275 278 277 276 276 278 281 283 283 287 294 297 288 273 259 248 241 239 239 241 249 249 242 239 243 244 234 233 234 213 193 173 163 168 152 132 138 142 134 128 128 129 131 128 121 116 117 120 122 120 116 113 113 117 118 120 127 132 132 132 126 121 124 128 132 141 146 145 146 145 145 152 162 161 154 156 156 104 60 47 52 55 53 52 46 33
268 270 272 274 271 269 270 271 273 275 275 279 285 290 286 275 262 250 244 240 238 238 243 246 244 238 236 240 235 226 225 220 210 195 179 183 185 159 147 151 152 147 139 133 136 137 132 130 135 138 136 129 125 122 118 119 121 122 129 136 137 132 124 124 128 129 131 140 148 150 154 154 153 164 189 201 194 198 219 266 303 333 358 4 9 6 356 342
262 267 268 268 266 265 266 267 269 271 271 274 280 284 282 275 263 250 243 240 237 237 238 239 241 239 233 232 234 230 221 215 215 210 198 195 200 186 166 163 163 160 154 149 149 149 146 146 146 144 142 140 138 139 138 133 126 125 131 138 136 127 120 120 124 129 133 143 158 167 171 175 178 182 200 218 227 237 252 261 276 307 329 334 338 338 337 334
258 261 262 263 262 261 262 264 266 267 268 270 275 279 278 272 264 253 242 238 237 236 236 236 236 238 235 230 230 231 223 212 212 215 211 205 206 203 191 185 180 171 166 165 162 157 155 160 158 153 159 166 161 155 152 151 144 139 140 144 143 139 135 132 134 138 144 164 181 185 185 198 214 214 216 226 232 240 252 261 283 312 320 320 324 325 324 324
255 256 257 258 258 259 260 262 263 263 265 267 271 276 272 266 261 255 245 239 238 236 235 236 235 235 236 232 229 231 226 216 211 215 216 214 213 212 210 210 204 195 185 178 175 169 166 172 171 164 168 177 175 169 165 159 155 151 150 151 153 156 155 154 151 150 167 196 191 181 179 194 224 240 242 244 240 237 247 260 286 304 308 313 317 317 316 315
253 252 253 254 256 258 259 261 262 263 264 266 270 273 270 262 255 253 248 242 239 237 235 236 235 233 234 233 230 230 228 221 213 213 216 217 217 218 217 219 216 213 208 194 189 187 184 184 184 180 182 180 173 174 172 165 165 166 161 157 162 168 164 160 155 154 175 203 196 185 185 191 211 231 243 252 249 246 259 277 290 296 301 307 311 311 310 310
253 250 250 252 254 257 259 260 262 264 263 265 268 270 270 263 253 249 248 246 243 240 236 236 236 235 234 234 231 230 230 225 217 213 215 217 218 219 219 217 213 213 216 211 206 204 199 199 205 207 207 201 192 187 181 180 182 180 171 166 172 178 174 170 168 166 188 217 222 224 221 215 225 234 239 244 246 248 260 273 281 288 294 299 303 304 303 301
257 251 249 251 253 255 257 259 261 263 262 263 267 270 270 263 254 249 248 246 245 243 240 237 236 235 235 235 234 232 231 228 222 217 216 217 218 218 218 216 212 211 214 217 220 223 222 224 227 225 223 218 212 205 198 202 203 194 191 187 185 189 189 188 190 198 221 242 250 248 244 241 240 241 243 246 246 248 256 265 274 281 286 291 295 296 295 294
263 256 251 251 253 253 255 257 259 261 262 263 266 269 269 263 257 253 249 244 242 244 243 239 237 236 236 236 237 236 234 231 226 222 219 219 221 220 218 215 213 214 217 219 223 228 232 237 238 231 226 222 218 216 216 219 221 222 227 229 219 215 213 213 220 230 238 246 250 251 251 250 247 244 243 244 246 251 259 267 272 277 281 285 287 288 289 288
264 260 255 253 253 253 254 256 257 259 261 263 266 268 267 264 260 256 249 243 242 243 243 241 238 236 236 237 238 238 237 235 230 225 222 222 223 224 222 218 215 218 221 222 225 229 233 237 240 237 231 223 218 220 222 223 227 231 236 237 236 234 231 229 233 237 242 245 247 250 251 249 248 247 245 247 251 256 261 264 267 272 276 280 283 283 283 283
262 260 258 255 255 255 255 256 258 258 260 263 266 268 267 264 261 257 250 245 242 242 242 241 238 235 235 237 238 238 239 239 236 231 227 225 225 227 228 225 222 223 225 225 226 229 232 235 238 239 237 229 221 222 226 229 233 236 237 238 238 238 239 239 238 239 242 244 246 248 248 247 248 248 249 252 255 258 259 260 262 266 272 277 281 282 280 279
Height
5818 5816 5813 5810 5808 5806 5804 5801 5799 5797 5794 5791 5788 5785 5783 5780 5777 5774 5770 5765 5761 5757 5753 5749 5746 5743 5739 5735 5730 5726 5722 5718 5714 5710 5706 5702 5699 5696 5692 5689 5685 5683 5681 5681 5681 5681 5683 5685 5687 5690 5694 5697 5701 5705 5709 5713 5718 5722 5727 5732 5737 5744 5750 5757 5762 5766 5770 5771 5775 5782 5786 5792 5797 5801 5806 5808 5811 5813 5816 5818 5820 5822 5824 5825 5826 5828 5830 5831
5816 5813 5811 5808 5806 5804 5802 5800 5798 5795 5792 5789 5786 5784 5781 5778 5775 5772 5767 5763 5759 5755 5751 5748 5745 5741 5737 5733 5728 5724 5720 5716 5712 5708 5704 5700 5696 5692 5688 5685 5681 5679 5677 5677 5677 5677 5679 5681 5683 5686 5690 5693 5697 5701 5705 5710 5715 5720 5725 5730 5736 5743 5748 5753 5756 5760 5764 5767 5773 5778 5783 5789 5795 5799 5803 5806 5809 5812 5815 5816 5819 5822 5822 5823 5825 5826 5828 5829
5814 5811 5809 5806 5804 5802 5800 5798 5796 5793 5791 5788 5785 5782 5779 5776 5773 5770 5766 5762 5758 5754 5750 5746 5743 5740 5736 5731 5727 5723 5719 5715 5710 5706 5702 5697 5693 5689 5685 5681 5678 5676 5674 5674 5673 5674 5675 5677 5680 5683 5686 5690 5694 5698 5702 5707 5712 5718 5723 5728 5734 5741 5745 5748 5752 5755 5759 5764 5770 5775 5780 5786 5792 5797 5801 5804 5807 5809 5811 5813 5815 5817 5818 5819 5822 5824 5826 5828
5812 5809 5807 5805 5803 5801 5799 5797 5794 5792 5789 5786 5783 5781 5778 5775 5772 5768 5764 5760 5757 5753 5749 5746 5742 5738 5734 5730 5726 5722 5717 5714 5709 5705 5700 5695 5691 5686 5682 5678 5675 5673 5672 5671 5671 5671 5672 5674 5677 5680 5684 5687 5691 5696 5700 5705 5711 5716 5720 5727 5733 5738 5741 5745 5749 5753 5758 5763 5768 5773 5777 5784 5790 5795 5799 5802 5804 5805 5807 5810 5812 5814 5816 5817 5819 5823 5824 5826
5810 5807 5805 5803 5801 5799 5797 5795 5793 5790 5788 5785 5782 5779 5777 5774 5770 5767 5763 5759 5755 5752 5748 5745 5741 5737 5733 5729 5726 5722 5717 5712 5708 5703 5697 5692 5688 5683 5679 5676 5673 5672 5671 5670 5670 5670 5670 5672 5675 5678 5681 5685 5689 5694 5698 5704 5709 5713 5719 5725 5730 5734 5737 5742 5746 5752 5758 5762 5767 5771 5776 5783 5788 5793 5797 5799 5801 5803 5806 5810 5813 5816 5817 5817 5817 5820 5822 5824
5808 5806 5804 5802 5800 5797 5796 5794 5792 5789 5786 5784 5781 5778 5775 5772 5769 5766 5762 5759 5755 5751 5747 5744 5740 5736 5732 5728 5725 5721 5716 5711 5706 5701 5696 5691 5687 5682 5677 5674 5672 5670 5669 5669 5668 5669 5669 5670 5673 5676 5679 5683 5688 5692 5697 5701 5706 5711 5717 5721 5725 5729 5734 5739 5745 5750 5755 5760 5765 5769 5775 5781 5786 5791 5794 5796 5799 5801 5802 5806 5812 5815 5816 5816 5815 5817 5821 5823
5806 5804 5802 5800 5798 5796 5794 5792 5790 5788 5785 5782 5780 5778 5775 5771 5768 5765 5761 5758 5754 5750 5747 5743 5739 5735 5732 5728 5724 5721 5716 5710 5706 5700 5696 5692 5687 5682 5678 5674 5671 5669 5668 5668 5668 5668 5668 5669 5671 5674 5678 5682 5686 5690 5695 5699 5704 5709 5714 5718 5723 5728 5733 5738 5743 5748 5752 5758 5763 5767 5772 5778 5783 5788 5791 5793 5796 5798 5801 5804 5808 5812 5814 5814 5814 5816 5820 5821
5805 5803 5801 5799 5797 5795 5793 5791 5789 5787 5784 5782 5779 5777 5774 5771 5767 5764 5761 5758 5754 5750 5746 5742 5738 5734 5731 5727 5723 5720 5715 5710 5705 5700 5696 5692 5688 5683 5678 5674 5671 5670 5669 5668 5667 5667 5668 5669 5671 5674 5677 5681 5685 5690 5694 5698 5703 5707 5712 5716 5722 5727 5732 5737 5742 5746 5751 5757 5762 5766 5771 5775 5779 5783 5786 5789 5791 5795 5801 5804 5806 5809 5812 5813 5813 5815 5818 5820
5803 5801 5799 5797 5795 5793 5791 5790 5788 5786 5783 5781 5779 5776 5773 5770 5767 5764 5760 5757 5754 5750 5746 5742 5738 5734 5730 5726 5723 5719 5714 5709 5706 5701 5697 5693 5688 5683 5678 5675 5672 5671 5670 5668 5667 5668 5669 5670 5672 5675 5678 5681 5685 5689 5694 5698 5702 5706 5711 5715 5721 5726 5731 5736 5741 5746 5751 5756 5761 5765 5770 5774 5777 5779 5781 5785 5788 5792 5798 5801 5803 5808 5811 5812 5813 5814 5816 5819
5802 5800 5798 5796 5794 5792 5790 5788 5787 5785 5782 5780 5778 5776 5773 5770 5767 5763 5760 5757 5753 5750 5746 5742 5738 5734 5730 5727 5723 5719 5714 5710 5706 5702 5698 5694 5690 5685 5680 5677 5674 5672 5671 5670 5670 5670 5670 5672 5673 5676 5679 5682 5685 5689 5693 5697 5701 5706 5712 5717 5721 5725 5730 5735 5740 5745 5750 5756 5761 5765 5768 5770 5773 5777 5779 5782 5786 5791 5797 5799 5801 5806 5809 5811 5812 5813 5815 5817
5801 5798 5797 5795 5793 5791 5789 5787 5785 5784 5781 5779 5778 5775 5773 5770 5766 5763 5760 5757 5753 5750 5746 5742 5738 5734 5731 5727 5724 5721 5715 5710 5707 5703 5700 5697 5692 5688 5684 5680 5676 5674 5673 5673 5672 5672 5673 5673 5675 5677 5680 5683 5686 5689 5692 5696 5700 5705 5712 5717 5721 5725 5729 5734 5738 5744 5749 5755 5760 5763 5766 5768 5772 5778 5780 5783 5788 5793 5798 5800 5801 5803 5806 5809 5810 5811 5813 5815
5800 5797 5795 5794 5792 5790 5788 5786 5784 5782 5780 5779 5777 5775 5772 5769 5766 5763 5760 5757 5754 5750 5747 5743 5739 5735 5731 5728 5725 5722 5717 5711 5708 5704 5702 5699 5695 5690 5687 5683 5679 5677 5676 5675 5675 5675 5675 5676 5677 5679 5681 5684 5687 5690 5693 5697 5701 5705 5711 5716 5721 5726 5730 5734 5738 5743 5749 5754 5758 5761 5763 5766 5771 5776 5781 5786 5789 5792 5798 5801 5802 5801 5804 5808 5808 5808 5810 5813
5798 5796 5794 5793 5791 5789 5787 5785 5783 5781 5779 5778 5777 5774 5772 5769 5766 5763 5760 5757 5754 5751 5747 5744 5739 5736 5732 5730 5727 5723 5719 5714 5710 5706 5703 5701 5697 5693 5690 5687 5683 5680 5679 5678 5678 5678 5678 5679 5680 5682 5684 5686 5689 5692 5695 5699 5702 5706 5711 5716 5721 5726 5731 5735 5739 5743 5747 5752 5756 5759 5761 5765 5771 5777 5783 5787 5789 5791 5796 5799 5800 5801 5804 5808 5806 5804 5808 5811
5797 5795 5793 5791 5790 5788 5786 5784 5782 5781 5779 5777 5776 5774 5772 5769 5766 5763 5760 5757 5754 5751 5748 5744 5741 5737 5734 5731 5728 5724 5721 5717 5712 5709 5706 5703 5700 5697 5694 5691 5687 5684 5683 5682 5681 5681 5682 5682 5684 5685 5687 5689 5691 5694 5697 5701 5704 5707 5711 5716 5721 5727 5731 5735 5738 5741 5745 5750 5754 5758 5762 5768 5774 5779 5784 5788 5789 5792 5794 5796 5799 5801 5804 5806 5803 5802 5807 5810
5796 5794 5792 5790 5789 5787 5785 5783 5781 5780 5778 5776 5775 5773 5771 5768 5766 5763 5760 5757 5755 5752 5749 5745 5742 5739 5736 5733 5729 5726 5723 5719 5715 5711 5709 5705 5702 5699 5697 5694 5692 5689 5687 5686 5685 5685 5685 5685 5687 5688 5690 5693 5695 5697 5700 5704 5706 5709 5713 5718 5723 5728 5731 5734 5737 5741 5746 5752 5756 5760 5765 5770 5774 5779 5784 5787 5788 5790 5792 5795 5797 5800 5803 5803 5800 5801 5805 5809
5795 5793 5791 5789 5788 5786 5784 5782 5780 5779 5777 5776 5774 5773 5770 5768 5765 5763 5760 5758 5755 5753 5749 5746 5742 5739 5737 5734 5731 5728 5724 5721 5718 5714 5711 5708 5705 5702 5700 5698 5696 5694 5692 5691 5690 5689 5689 5689 5691 5692 5693 5696 5699 5701 5703 5705 5708 5713 5717 5722 5726 5728 5731 5734 5739 5744 5749 5754 5758 5763 5767 5771 5774 5778 5782 5785 5787 5788 5791 5795 5798 5800 5801 5799 5797 5800 5805 5807
5794 5792 5790 5788 5787 5785 5783 5781 5779 5778 5776 5775 5774 5772 5770 5768 5765 5762 5760 5758 5756 5753 5750 5747 5744 5740 5738 5736 5733 5730 5726 5723 5720 5717 5714 5711 5708 5706 5703 5701 5700 5699 5697 5696 5695 5694 5694 5695 5696 5697 5698 5700 5702 5705 5706 5708 5710 5714 5718 5722 5727 5730 5734 5738 5742 5746 5751 5755 5759 5765 5769 5772 5775 5777 5780 5784 5786 5789 5792 5795 5798 5799 5799 5796 5795 5799 5804 5806
5793 5791 5789 5787 5786 5784 5782 5780 5778 5777 5775 5774 5773 5772 5770 5768 5765 5762 5760 5758 5756 5753 5751 5748 5744 5742 5739 5737 5734 5731 5728 5725 5722 5720 5717 5714 5712 5709 5706 5705 5703 5702 5702 5701 5700 5699 5699 5700 5700 5701 5703 5704 5706 5708 5710 5713 5715 5717 5721 5725 5730 5735 5739 5743 5746 5750 5754 5758 5762 5766 5770 5773 5775 5777 5780 5783 5787 5790 5793 5795 5797 5798 5797 5794 5795 5799 5802 5805
5792 5790 5788 5787 5785 5783 5781 5779 5778 5776 5775 5773 5772 5771 5769 5768 5765 5763 5760 5758 5756 5754 5752 5748 5745 5743 5741 5738 5735 5732 5730 5727 5724 5722 5719 5717 5715 5713 5710 5708 5706 5706 5705 5705 5704 5704 5704 5705 5705 5706 5707 5708 5710 5712 5714 5717 5719 5722 5726 5730 5734 5739 5742 5744 5749 5754 5757 5761 5764 5767 5770 5772 5775 5777 5780 5783 5787 5791 5793 5794 5795 5796 5794 5793 5796 5799 5801 5803
5790 5789 5787 5786 5785 5783 5780 5779 5777 5776 5774 5773 5772 5770 5768 5766 5764 5762 5760 5759 5757 5755 5752 5749 5746 5744 5742 5739 5737 5734 5731 5729 5726 5724 5722 5720 5718 5716 5714 5711 5710 5709 5709 5708 5708 5708 5708 5709 5710 5710 5712 5713 5714 5716 5718 5720 5723 5726 5730 5734 5738 5742 5744 5747 5752 5755 5759 5761 5763 5766 5769 5772 5775 5778 5779 5782 5787 5790 5792 5793 5793 5794 5793 5794 5796 5798 5800 5801
5789 5788 5786 5785 5784 5782 5780 5778 5777 5775 5774 5772 5771 5770 5768 5766 5764 5763 5761 5759 5757 5755 5753 5750 5747 5745 5743 5740 5738 5735 5733 5731 5728 5726 5724 5722 5721 5719 5717 5715 5714 5713 5713 5712 5712 5712 5711 5712 5714 5714 5715 5716 5717 5720 5721 5724 5728 5731 5735 5738 5741 5744 5747 5751 5754 5757 5760 5762 5764 5767 5769 5771 5775 5778 5780 5782 5784 5787 5789 5791 5792 5793 5793 5794 5795 5797 5798 5799
5788 5787 5785 5784 5783 5781 5779 5778 5776 5775 5773 5772 5771 5770 5768 5767 5765 5763 5762 5760 5758 5756 5754 5751 5749 5747 5744 5742 5739 5737 5735 5734 5731 5728 5726 5725 5723 5722 5721 5719 5718 5716 5715 5715 5715 5716 5715 5715 5716 5717 5718 5719 5721 5723 5725 5728 5732 5735 5738 5741 5744 5747 5749 5752 5756 5758 5760 5762 5764 5767 5769 5771 5774 5777 5779 5780 5782 5784 5787 5789 5791 5791 5792 5793 5795 5796 5797 5798
5788 5786 5784 5783 5782 5781 5779 5777 5776 5774 5773 5772 5771 5770 5768 5767 5765 5763 5762 5760 5759 5757 5754 5752 5750 5748 5745 5743 5742 5740 5737 5735 5734 5732 5730 5728 5726 5725 5724 5722 5721 5720 5719 5719 5719 5719 5719 5719 5719 5720 5721 5723 5724 5726 5729 5732 5735 5738 5740 5742 5745 5748 5751 5754 5757 5759 5761 5763 5765 5767 5769 5771 5773 5776 5778 5780 5780 5782 5785 5787 5789 5790 5792 5793 5794 5795 5796 5797
5787 5785 5783 5782 5781 5780 5778 5776 5775 5774 5773 5772 5771 5770 5768 5767 5765 5764 5762 5760 5759 5758 5756 5753 5751 5749 5746 5744 5743 5742 5739 5737 5736 5734 5732 5730 5729 5729 5727 5725 5725 5724 5723 5723 5723 5723 5723 5723 5722 5722 5724 5726 5728 5730 5733 5735 5738 5740 5741 5743 5746 5750 5753 5755 5758 5759 5762 5764 5765 5767 5770 5771 5773 5775 5778 5780 5780 5781 5783 5786 5788 5790 5791 5792 5793 5794 5795 5796
5786 5784 5782 5781 5780 5779 5777 5776 5775 5773 5772 5771 5770 5769 5768 5767 5765 5764 5762 5761 5760 5759 5757 5755 5753 5750 5748 5746 5745 5743 5741 5740 5738 5736 5735 5733 5732 5731 5730 5729 5729 5728 5727 5727 5727 5727 5727 5727 5726 5726 5728 5730 5732 5734 5736 5738 5740 5741 5741 5743 5748 5752 5754 5757 5759 5760 5762 5764 5766 5768 5771 5772 5773 5774 5776 5778 5778 5780 5782 5785 5787 5788 5789 5791 5791 5793 5794 5794
5785 5783 5781 5780 5779 5778 5776 5775 5774 5773 5771 5770 5770 5769 5768 5767 5765 5764 5763 5762 5761 5760 5758 5756 5754 5752 5750 5748 5747 5745 5743 5741 5740 5739 5737 5736 5735 5734 5733 5733 5732 5732 5731 5730 5730 5730 5730 5731 5731 5731 5733 5734 5735 5736 5738 5740 5741 5742 5743 5746 5750 5753 5755 5757 5758 5760 5763 5765 5767 5770 5771 5771 5772 5773 5774 5775 5777 5779 5782 5784 5786 5787 5788 5789 5790 5791 5792 5793
5784 5783 5781 5779 5778 5777 5776 5774 5773 5772 5771 5770 5769 5769 5768 5767 5765 5764 5763 5762 5762 5760 5759 5757 5756 5754 5752 5751 5750 5747 5745 5743 5742 5741 5740 5738 5737 5736 5736 5736 5735 5735 5734 5733 5733 5733 5733 5734 5734 5735 5736 5737 5737 5738 5740 5742 5743 5744 5746 5749 5751 5753 5755 5757 5758 5760 5763 5766 5767 5770 5770 5771 5772 5773 5774 5775 5777 5780 5782 5783 5785 5786 5787 5788 5789 5790 5791 5792
5784 5782 5780 5779 5777 5776 5775 5773 5772 5771 5770 5769 5768 5768 5767 5767 5765 5764 5763 5762 5762 5761 5760 5758 5757 5755 5754 5753 5752 5750 5748 5746 5745 5743 5742 5741 5739 5739 5738 5738 5738 5737 5737 5736 5736 5736 5736 5736 5737 5738 5739 5739 5739 5740 5742 5743 5745 5747 5749 5751 5753 5754 5756 5757 5759 5761 5763 5764 5766 5768 5768 5769 5772 5774 5775 5776 5778 5780 5782 5783 5784 5785 5786 5787 5788 5789 5789 5790
5782 5781 5779 5778 5776 5776 5774 5772 5771 5770 5769 5768 5768 5767 5767 5766 5765 5765 5764 5763 5762 5761 5761 5760 5758 5757 5755 5754 5753 5752 5751 5749 5747 5746 5744 5743 5742 5741 5740 5740 5739 5739 5738 5738 5738 5738 5738 5738 5739 5740 5740 5740 5741 5742 5743 5745 5747 5749 5751 5753 5754 5755 5756 5758 5759 5761 5762 5763 5765 5766 5767 5769 5771 5773 5774 5776 5777 5779 5781 5782 5783 5784 5785 5786 5786 5787 5788 5789
5781 5780 5778 5777 5775 5775 5774 5772 5770 5769 5768 5767 5767 5767 5767 5766 5766 5765 5764 5763 5763 5762 5762 5761 5759 5758 5757 5755 5755 5754 5753 5751 5750 5748 5746 5744 5744 5743 5743 5742 5741 5740 5740 5740 5740 5740 5740 5740 5741 5741 5741 5742 5743 5744 5745 5746 5748 5750 5752 5753 5754 5755 5757 5758 5759 5761 5762 5763 5764 5766 5767 5769 5771 5772 5773 5774 5775 5777 5779 5781 5782 5783 5784 5784 5785 5786 5786 5787
5780 5779 5777 5776 5774 5774 5773 5771 5770 5769 5767 5766 5766 5766 5766 5766 5766 5765 5764 5764 5763 5763 5762 5761 5761 5760 5758 5757 5756 5755 5754 5753 5752 5751 5748 5747 5746 5745 5745 5744 5744 5743 5742 5742 5742 5742 5742 5742 5742 5743 5743 5744 5745 5746 5746 5747 5749 5750 5751 5753 5754 5755 5757 5758 5760 5761 5762 5763 5764 5766 5768 5769 5770 5771 5772 5773 5774 5776 5778 5780 5781 5782 5783 5783 5784 5784 5785 5785
5779 5778 5776 5775 5773 5773 5772 5770 5769 5768 5767 5765 5765 5765 5766 5766 5765 5765 5764 5764 5763 5763 5762 5762 5761 5761 5760 5759 5758 5757 5756 5755 5754 5752 5751 5749 5749 5748 5748 5747 5746 5745 5745 5744 5744 5744 5744 5744 5745 5745 5745 5746 5746 5747 5748 5748 5749 5750 5751 5753 5754 5755 5757 5758 5760 5761 5762 5763 5765 5766 5768 5769 5770 5771 5772 5773 5774 5776 5777 5779 5781 5781 5782 5782 5782 5783 5783 5784
5778 5777 5775 5774 5772 5772 5771 5770 5768 5767 5766 5765 5764 5765 5765 5765 5765 5765 5764 5764 5764 5763 5763 5762 5762 5761 5761 5760 5759 5758 5757 5756 5755 5754 5753 5752 5751 5751 5750 5749 5748 5747 5747 5746 5746 5746 5746 5746 5746 5746 5746 5746 5746 5747 5748 5749 5749 5750 5751 5753 5754 5755 5757 5758 5759 5760 5761 5763 5765 5767 5769 5770 5770 5772 5773 5774 5775 5776 5777 5779 5780 5781 5781 5781 5781 5782 5782 5783
5776 5775 5774 5773 5772 5771 5770 5769 5767 5766 5765 5764 5764 5764 5764 5764 5764 5764 5764 5764 5763 5763 5763 5762 5762 5762 5762 5761 5761 5760 5759 5758 5757 5756 5754 5754 5753 5753 5752 5751 5751 5750 5749 5749 5748 5748 5749 5749 5748 5747 5747 5747 5747 5747 5748 5748 5749 5750 5751 5752 5753 5755 5757 5758 5759 5760 5762 5764 5766 5768 5769 5770 5771 5772 5773 5774 5775 5776 5777 5778 5779 5780 5781 5781 5781 5782 5782 5782
5775 5774 5773 5772 5771 5770 5769 5768 5767 5765 5764 5763 5763 5763 5763 5763 5763 5764 5763 5763 5763 5763 5763 5763 5762 5762 5762 5762 5762 5761 5760 5759 5758 5757 5756 5756 5756 5755 5754 5753 5753 5753 5752 5752 5751 5751 5751 5750 5750 5749 5749 5749 5749 5749 5749 5749 5750 5751 5752 5752 5752 5754 5757 5760 5762 5762 5764 5766 5767 5769 5770 5770 5772 5773 5773 5774 5775 5775 5777 5778 5779 5780 5781 5782 5782 5782 5782 5782
5773 5772 5771 5770 5769 5768 5768 5767 5766 5765 5763 5762 5762 5762 5762 5762 5763 5763 5763 5763 5762 5762 5762 5762 5763 5763 5762 5762 5762 5761 5761 5760 5760 5759 5758 5758 5757 5756 5755 5755 5754 5754 5754 5754 5754 5753 5753 5752 5752 5752 5752 5752 5752 5752 5752 5753 5753 5754 5755 5754 5754 5756 5759 5761 5764 5765 5766 5767 5768 5769 5770 5771 5772 5773 5773 5774 5774 5775 5776 5777 5779 5780 5781 5782 5782 5782 5783 5783
5771 5770 5770 5769 5768 5767 5766 5766 5765 5764 5762 5761 5761 5760 5760 5761 5761 5762 5762 5762 5762 5762 5762 5762 5762 5762 5762 5762 5762 5762 5761 5761 5761 5760 5759 5759 5758 5757 5757 5756 5756 5755 5755 5756 5756 5756 5755 5754 5754 5755 5754 5754 5755 5755 5755 5756 5757 5757 5757 5757 5757 5759 5761 5763 5765 5766 5767 5768 5769 5770 5771 5772 5773 5773 5773 5773 5774 5775 5776 5777 5778 5780 5781 5781 5782 5782 5782 5783
5768 5768 5768 5767 5766 5765 5765 5764 5764 5763 5761 5760 5759 5759 5759 5760 5760 5760 5760 5761 5761 5761 5761 5761 5761 5762 5762 5762 5762 5762 5761 5761 5761 5761 5760 5760 5759 5759 5758 5758 5757 5757 5756 5757 5757 5757 5756 5756 5757 5757 5756 5757 5757 5758 5758 5759 5760 5761 5760 5760 5761 5761 5763 5765 5767 5768 5769 5769 5770 5770 5771 5772 5773 5773 5773 5773 5774 5774 5775 5776 5777 5779 5780 5781 5781 5782 5782 5782
5766 5766 5765 5765 5764 5764 5763 5763 5763 5762 5760 5759 5758 5758 5758 5758 5759 5759 5759 5760 5760 5760 5760 5760 5760 5761 5761 5761 5761 5761 5761 5761 5761 5761 5761 5761 5760 5760 5760 5759 5759 5758 5758 5757 5758 5759 5758 5758 5759 5759 5759 5759 5760 5760 5761 5762 5763 5763 5763 5764 5764 5764 5765 5766 5768 5769 5770 5771 5771 5771 5772 5772 5773 5773 5773 5774 5774 5775 5776 5776 5777 5778 5779 5780 5780 5781 5781 5782
5764 5763 5763 5763 5762 5762 5761 5761 5761 5760 5759 5758 5757 5756 5756 5756 5757 5757 5758 5758 5758 5759 5759 5759 5759 5760 5760 5760 5761 5761 5761 5761 5761 5761 5761 5761 5761 5760 5761 5761 5760 5760 5759 5759 5759 5760 5760 5760 5761 5761 5761 5762 5762 5762 5763 5764 5764 5765 5765 5766 5766 5767 5767 5768 5769 5770 5771 5772 5772 5772 5772 5773 5773 5774 5774 5775 5775 5775 5776 5777 5777 5778 5779 5780 5780 5780 5781 5781
5761 5761 5761 5760 5760 5760 5759 5759 5759 5759 5758 5757 5756 5755 5755 5755 5755 5756 5756 5757 5757 5757 5758 5758 5758 5759 5759 5759 5759 5760 5760 5761 5761 5761 5761 5761 5761 5761 5761 5762 5761 5761 5761 5760 5760 5761 5761 5762 5762 5763 5763 5764 5764 5764 5765 5765 5765 5766 5766 5767 5768 5768 5768 5769 5770 5771 5771 5772 5772 5773 5773 5773 5774 5774 5775 5775 5776 5776 5776 5777 5777 5778 5779 5780 5780 5780 5781 5781
5758 5758 5758 5758 5758 5758 5757 5757 5757 5757 5756 5755 5754 5754 5753 5753 5754 5754 5755 5755 5756 5756 5756 5757 5757 5757 5758 5758 5758 5759 5759 5760 5760 5760 5760 5761 5761 5761 5762 5762 5762 5762 5762 5761 5761 5761 5762 5763 5764 5764 5765 5765 5765 5766 5766 5766 5766 5767 5767 5768 5768 5769 5769 5769 5770 5772 5772 5772 5773 5774 5774 5774 5774 5775 5775 5776 5776 5776 5776 5776 5777 5777 5778 5779 5780 5780 5780 5781
5755 5755 5755 5756 5756 5755 5755 5755 5755 5755 5754 5753 5753 5752 5752 5751 5752 5753 5753 5754 5754 5754 5755 5755 5756 5756 5756 5757 5757 5757 5758 5758 5759 5760 5760 5760 5761 5761 5762 5763 5763 5762 5762 5762 5762 5762 5763 5764 5765 5765 5766 5766 5766 5766 5766 5767 5767 5768 5768 5769 5769 5769 5770 5770 5771 5772 5773 5773 5773 5774 5774 5774 5774 5775 5775 5776 5775 5776 5776 5776 5777 5777 5778 5778 5779 5779 5779 5780
5752 5752 5753 5753 5753 5753 5753 5753 5753 5752 5752 5752 5751 5751 5750 5750 5750 5751 5751 5752 5752 5752 5753 5754 5754 5755 5755 5755 5756 5756 5756 5757 5758 5758 5759 5760 5761 5761 5762 5763 5763 5763 5763 5763 5763 5763 5763 5764 5765 5766 5767 5767 5767 5767 5767 5767 5768 5768 5769 5769 5770 5770 5770 5770 5771 5772 5773 5773 5774 5774 5774 5774 5774 5775 5776 5776 5775 5775 5776 5776 5777 5777 5777 5777 5778 5778 5778 5779
5749 5750 5750 5750 5751 5750 5750 5750 5750 5750 5750 5750 5749 5749 5749 5748 5748 5748 5749 5749 5750 5750 5751 5752 5753 5753 5754 5754 5754 5755 5755 5755 5756 5757 5758 5759 5760 5761 5762 5762 5763 5764 5764 5764 5764 5764 5764 5765 5765 5766 5766 5766 5767 5767 5767 5767 5768 5769 5769 5770 5770 5770 5770 5771 5771 5772 5773 5773 5773 5773 5774 5774 5774 5775 5775 5775 5775 5775 5775 5776 5776 5776 5776 5776 5777 5777 5777 5778
5746 5747 5747 5748 5748 5748 5748 5748 5748 5748 5748 5748 5747 5747 5747 5746 5746 5746 5747 5747 5747 5748 5749 5750 5750 5751 5752 5753 5753 5754 5754 5754 5755 5756 5757 5758 5759 5760 5761 5762 5762 5763 5764 5764 5764 5764 5765 5765 5765 5765 5765 5766 5766 5767 5767 5768 5768 5769 5769 5770 5770 5770 5770 5770 5771 5771 5772 5772 5772 5773 5774 5774 5774 5774 5775 5775 5775 5775 5775 5775 5775 5776 5776 5776 5776 5776 5777 5777
5743 5744 5744 5745 5745 5745 5745 5745 5746 5746 5746 5746 5745 5745 5745 5745 5745 5744 5744 5745 5745 5746 5747 5748 5748 5749 5750 5751 5752 5752 5753 5753 5754 5754 5755 5756 5757 5759 5760 5760 5761 5762 5763 5764 5764 5765 5765 5765 5765 5766 5766 5766 5767 5768 5768 5768 5769 5769 5770 5770 5770 5770 5770 5770 5771 5771 5771 5771 5771 5772 5773 5773 5774 5774 5774 5774 5775 5775 5775 5775 5775 5775 5776 5776 5776 5776 5776 5776
5740 5741 5741 5742 5742 5742 5743 5743 5743 5743 5744 5743 5743 5743 5743 5743 5743 5742 5742 5742 5743 5744 5744 5745 5746 5748 5749 5750 5750 5751 5751 5752 5752 5753 5753 5754 5756 5757 5758 5759 5760 5761 5762 5763 5764 5764 5765 5765 5765 5766 5766 5766 5767 5767 5768 5769 5769 5769 5769 5770 5770 5770 5770 5770 5770 5771 5771 5771 5771 5771 5772 5773 5773 5773 5774 5774 5774 5774 5774 5774 5774 5775 5775 5775 5775 5775 5775 5775
5737 5737 5738 5739 5739 5740 5740 5740 5741 5741 5741 5741 5741 5741 5741 5741 5740 5740 5739 5740 5741 5741 5742 5743 5744 5746 5747 5748 5748 5749 5750 5750 5751 5751 5752 5753 5754 5755 5756 5757 5758 5759 5760 5761 5762 5763 5764 5764 5765 5765 5766 5766 5767 5767 5768 5768 5769 5769 5769 5770 5770 5770 5770 5770 5770 5770 5770 5770 5770 5770 5771 5771 5772 5772 5773 5773 5773 5773 5773 5773 5773 5774 5774 5774 5774 5774 5774 5774
5734 5735 5735 5736 5736 5737 5737 5738 5738 5738 5738 5739 5739 5738 5738 5738 5738 5737 5737 5738 5739 5739 5740 5741 5742 5744 5745 5746 5747 5747 5748 5749 5749 5750 5751 5751 5752 5753 5754 5755 5756 5757 5759 5760 5761 5762 5762 5763 5764 5764 5765 5765 5766 5766 5767 5768 5768 5769 5769 5769 5769 5770 5770 5770 5770 5770 5770 5770 5770 5770 5770 5770 5770 5771 5771 5771 5772 5772 5772 5772 5772 5773 5773 5773 5773 5773 5773 5773
5732 5732 5733 5733 5734 5734 5735 5735 5736 5736 5736 5736 5736 5736 5736 5736 5735 5735 5735 5735 5736 5736 5737 5738 5740 5741 5743 5744 5745 5746 5746 5747 5748 5749 5749 5750 5750 5751 5752 5753 5754 5755 5757 5758 5759 5760 5761 5762 5762 5763 5763 5764 5765 5765 5766 5767 5767 5768 5768 5768 5768 5769 5769 5769 5769 5769 5769 5769 5769 5769 5769 5769 5770 5770 5770 5770 5770 5771 5771 5771 5771 5772 5772 5772 5772 5772 5772 5771
5730 5730 5730 5731 5731 5732 5732 5733 5733 5733 5733 5733 5733 5733 5733 5733 5732 5732 5732 5733 5733 5733 5734 5735 5737 5739 5740 5741 5743 5744 5745 5745 5746 5747 5748 5748 5749 5750 5750 5751 5752 5754 5755 5756 5757 5758 5759 5760 5761 5761 5761 5762 5763 5764 5765 5765 5766 5766 5767 5767 5767 5767 5767 5768 5768 5768 5768 5768 5768 5768 5768 5769 5769 5769 5769 5769 5769 5769 5770 5770 5770 5770 5770 5770 5770 5770 5770 5770